Location: Arrien
(43.3167°N, 0.1500°W)
Time: 03:27:49
(UTC+00:00)

Okean-O - Pass Details

Date: 15 October 2021
Orbit: 639 x 640 km, 98.2° (Epoch: 02 December)

Event Time Altitude Azimuth Distance (km) Brightness Sun altitude
Exits shadow 17:43:50 - 102° (ESE) 2,432 5.0 -5.6°
Reaches altitude 10° 17:45:37 10° 84° (E) 2,035 4.5 -5.9°
Maximum altitude 17:47:22 12° 60° (ENE) 1,891 4.5 -6.2°
Drops below altitude 10° 17:49:08 10° 37° (NE) 2,041 4.8 -6.5°
Sets 17:52:38 0° 7° (N) 2,956 5.9 -7.2°
